User: anonymous   Login
Location: Moscow
(38.8570°N, 84.2291°W)
Time: 21:51:04
(UTC+00:00)
Language:

MOS 1 Rocket - Orbit

View from above orbital plane
View from above orbital plane
View from above satellite
View from above satellite

Ground track
Ground track

The orbit is defined by the following mean orbital elements,

1 17528U          26020.27104414 +.00000000 +00000-0 +14910-3 0 00007
2 17528  97.4017  31.3487 0144829 165.3849 195.1606 14.54394678    02
Epoch (UTC): 20 January 2026 06:30:18
Eccentricity: 0.0144829
inclination: 97.4017°
perigee height: 609 km
apogee height: 814 km
right ascension of ascending node: 31.3487°
argument of perigee: 165.3849°
revolutions per day: 14.54394678
mean anomaly at epoch: 195.1606°

The dashed part of the orbit path shows where the satellite is in the earth's shadow,  

DLR